Regional Weather Roundup
Issued by NWS Spokane, WA

Home | Current Version | Previous Version | Text Only | Print | Product List | Glossary On
Versions: 1 2 3 4 5 6 7 8 9 10 11 12 13 14 15 16 17 18 19 20 21 22 23 24 25 26 27 28 29 30 31 32 33 34 35 36 37 38 39 40 41 42 43 44 45 46 47 48 49 50
473
NZUS01 KOTX 080105
RWROTX

Eastern Washington/Northern Idaho Roundup
National Weather Service, Spokane WA
500 PM PST WED DEC 07 2016

Note: "fair" indicated few or no clouds below 12,000 feet with no
significant weather and/or obstructions to visibility.

...Northeast Washington and Northern Idaho Panhandle...

CITY           SKY/WX    TMP DP  RH WIND       PRES   REMARKS
Spokane Intl   PTCLDY    24  12  60 NE7       30.41R WCI  16
Spokane Downto PTCLDY    27  14  58 E7        30.45R WCI  19
Coeur d Alene  FAIR      19  11  70 N10       30.43R WCI   7
Deer Park      CLOUDY    23   8  52 NE12      30.44S WCI  12
Sandpoint      CLOUDY    21   5  49 NE10      30.48R WCI  10
Bonners Ferry  CLOUDY    19   3  49 CALM      30.49R

...Southeast Washington and southern Idaho Panhandle...

CITY           SKY/WX    TMP DP  RH WIND       PRES   REMARKS
Walla Walla    CLEAR     19  13  77 E5        30.43S WCI  12
Pullman/Moscow PTCLDY    17  13  84 NE6       30.39S WCI   9
Lewiston       PTCLDY    23  16  74 SE5       30.44S WCI  17
Lowell           N/A     26  22  84 CALM      30.46R
Grangeville    FAIR      12  10  92 CALM      30.33S

...Columbia Basin...

CITY           SKY/WX    TMP DP  RH WIND       PRES   REMARKS
Ephrata        PTCLDY    17   5  59 N9        30.47S WCI   6
Moses Lake     PTCLDY    15   7  70 N8        30.49R WCI   4
Pasco          CLEAR     22  19  89 N7        30.53R WCI  13
Richland       CLEAR     26  20  77 N8        30.53R WCI  18
Hermiston      PTCLDY    24  18  77 E8        30.47R WCI  15
Pendleton      CLEAR     19  15  84 CALM      30.41R

...East Slopes Cascades...

CITY           SKY/WX    TMP DP  RH WIND       PRES   REMARKS
The Dalles     MOCLDY    30  20  66 E3        30.46S
Yakima         MOCLDY    29  13  51 CALM      30.46S
Ellensburg     PTCLDY    21   9  59 SE7       30.42R WCI  12
Wenatchee      PTCLDY    20   9  62 W5        30.50R WCI  13
Omak           CLEAR     19   5  54 NW12      30.54R WCI   7
Sunnyside      PTCLDY    26  12  56 N8        30.48R WCI  17

...Southern British Columbia...

CITY           SKY/WX    TMP DP  RH WIND       PRES   REMARKS

...Western Montana...

CITY           SKY/WX    TMP DP  RH WIND       PRES   REMARKS
Kalispell      PTCLDY     6  -3  66 N5        30.48R WCI  -3
Libby            N/A     14   3  62 CALM      30.49R
Missoula       CLOUDY    15   3  59 E7        30.45R WCI   5

...Neighboring Cities...

CITY           SKY/WX    TMP DP  RH WIND       PRES   REMARKS
Seattle        PTCLDY    33  21  61 NE8       30.35F WCI  26
Portland       CLOUDY    36  19  50 E20G31    30.26F
Boise          PTCLDY    20  14  77 E8        30.37R WCI  10
Great Falls    CLOUDY     0  -5  79 S3        30.50S



USA.gov is the U.S. government's official web portal to all federal, state and local government web resources and services.